Overview Statistics Trail Chart Weather Telemetry Raw packets
 

This is the latest recevied weather packets stored in our database for station/object 4S6DRJ-13. If no packets are shown the sender has not sent any weather packets the latest 10 day(s).

<< 384 385 386 387 388 389 390 >>
Time Temp. Humidity Pressure Rain* Wind** Luminosity Snow
1787883665 28.33° C 83% 1010.4 hPa 0 mm 2.68 m/s, 212° 176 W/m² -
1787883610 28.33° C 83% 1010.5 hPa 0 mm 1.34 m/s, 226° 175 W/m² -
1787883543 28.33° C 83% 1010.7 hPa 0 mm 1.34 m/s, 224° 189 W/m² -
1787883482 28.33° C 83% 1010.3 hPa 0 mm 0.45 m/s, 218° 248 W/m² -
1787883421 28.33° C 83% 1010.5 hPa 0 mm 0.89 m/s, 213° 192 W/m² -
1787883360 28.33° C 83% 1010.6 hPa 0 mm 2.24 m/s, 209° 232 W/m² -
1787883299 28.33° C 84% 1010.6 hPa 0 mm 0.89 m/s, 275° 192 W/m² -
1787883239 28.33° C 83% 1010.4 hPa 0 mm 0.89 m/s, 240° 185 W/m² -
1787883177 28.33° C 83% 1010.5 hPa 0 mm 1.79 m/s, 245° 165 W/m² -
1787883116 28.33° C 83% 1010.5 hPa 0 mm 2.68 m/s, 269° 164 W/m² -
1787883055 28.33° C 83% 1010.4 hPa 0 mm 0.89 m/s, 157° 171 W/m² -
1787882994 28.33° C 84% 1010.3 hPa 0 mm 1.79 m/s, 326° 182 W/m² -
1787882933 28.33° C 84% 1010.2 hPa 0 mm 1.34 m/s, 134° 181 W/m² -
1787882872 28.33° C 84% 1010.3 hPa 0 mm 0.45 m/s, 236° 172 W/m² -
1787882811 28.33° C 84% 1010.3 hPa 0 mm 0.45 m/s, 218° 190 W/m² -
1787882750 28.33° C 84% 1010.2 hPa 0 mm 2.24 m/s, 151° 212 W/m² -
1787882689 28.33° C 85% 1010 hPa 0 mm 0.45 m/s, 260° 254 W/m² -
1787882629 28.33° C 84% 1010.2 hPa 0 mm 0.89 m/s, 105° 215 W/m² -
1787882567 28.33° C 85% 1010.2 hPa 0 mm 1.79 m/s, 246° 243 W/m² -
1787882506 28.33° C 85% 1010.2 hPa 0 mm 0.89 m/s, 215° 197 W/m² -
1787882446 28.33° C 85% 1010 hPa 0 mm 1.34 m/s, 111° 195 W/m² -
1787882384 28.33° C 85% 1010.3 hPa 0 mm 0.45 m/s, 321° 193 W/m² -
1787882323 28.33° C 85% 1010.3 hPa 0 mm 0.89 m/s, 219° 189 W/m² -
1787882262 28.33° C 85% 1010.1 hPa 0 mm 0 m/s 178 W/m² -
1787882202 28.33° C 85% 1010.3 hPa 0 mm 2.68 m/s, 219° 176 W/m² -

* Rain latest hour (hover to see other rain measurements)
** Current wind speed in m/s (hover to see current wind gust speed)